| time (UTC) | temp F | wind direction | speed MPH | gust MPH | rain 1hr in | rain 24hr in | rain mn in | humidity % | barometer mb |
| 20260506123035 | 62 | 332 | 2.0 | 8.0 | 0.00 | 0.00 | 0.00 | 87 | 1013.6 |
| 20260506121538 | 61 | 324 | 4.0 | 8.0 | 0.00 | 0.00 | 0.00 | 88 | 1013.9 |
| 20260506120029 | 61 | 318 | 1.0 | 4.0 | 0.00 | 0.00 | 0.00 | 88 | 1014.1 |
| 20260506114534 | 61 | 328 | 2.0 | 4.0 | 0.00 | 0.00 | 0.00 | 88 | 1014.2 |
| 20260506113027 | 61 | 336 | 1.0 | 4.0 | 0.00 | 0.00 | 0.00 | 88 | 1014.3 |
| 20260506111525 | 61 | 338 | 1.0 | 4.0 | 0.00 | 0.00 | 0.00 | 89 | 1014.6 |
| 20260506110028 | 61 | 343 | 1.0 | 3.0 | 0.00 | 0.00 | 0.00 | 88 | 1014.6 |
| 20260506104524 | 61 | 353 | 1.0 | 3.0 | 0.00 | 0.00 | 0.00 | 87 | 1014.6 |
| 20260506103023 | 61 | 360 | 0.0 | 3.0 | 0.00 | 0.00 | 0.00 | 87 | 1014.5 |
| 20260506101524 | 61 | 28 | 0.0 | 2.0 | 0.00 | 0.00 | 0.00 | 87 | 1014.6 |
| 20260506100022 | 61 | 28 | 0.0 | 2.0 | 0.00 | 0.00 | 0.00 | 87 | 1014.6 |
| 20260506094521 | 61 | 28 | 0.0 | 2.0 | 0.00 | 0.00 | 0.00 | 86 | 1014.6 |
| 20260506093024 | 61 | 28 | 0.0 | 3.0 | 0.00 | 0.00 | 0.00 | 85 | 1014.7 |
| 20260506091523 | 62 | 30 | 1.0 | 3.0 | 0.00 | 0.00 | 0.00 | 84 | 1014.7 |
| 20260506090022 | 63 | 66 | 0.0 | 3.0 | 0.00 | 0.00 | 0.00 | 83 | 1014.7 |
| 20260506084517 | 64 | 44 | 1.0 | 3.0 | 0.00 | 0.00 | 0.00 | 82 | 1014.8 |
| 20260506083017 | 64 | 75 | 1.0 | 6.0 | 0.00 | 0.00 | 0.00 | 83 | 1014.8 |
| 20260506081516 | 63 | 102 | 0.0 | 4.0 | 0.00 | 0.00 | 0.00 | 83 | 1014.7 |
| 20260506073013 | 65 | 93 | 0.0 | 2.0 | 0.00 | 0.00 | 0.00 | 78 | 1014.7 |
| 20260506071513 | 65 | 197 | 0.0 | 2.0 | 0.00 | 0.00 | 0.00 | 76 | 1014.6 |
| 20260506061513 | 76 | 179 | 1.0 | 3.0 | 0.00 | 0.00 | 0.00 | 59 | 1014.9 |
| 20260506044500 | 75 | 168 | 4.0 | 8.0 | 0.00 | 0.00 | 0.00 | 59 | 1015.5 |
| 20260506043059 | 76 | 163 | 3.0 | 8.0 | 0.00 | 0.00 | 0.00 | 56 | 1015.6 |
| 20260506041558 | 77 | 170 | 3.0 | 7.0 | 0.00 | 0.00 | 0.00 | 56 | 1015.6 |
| 20260506034608 | 76 | 187 | 3.0 | 5.0 | 0.00 | 0.00 | 0.00 | 56 | 1016.1 |
| 20260506033052 | 76 | 176 | 3.0 | 8.0 | 0.00 | 0.00 | 0.00 | 56 | 1016.3 |
| 20260506031558 | 76 | 172 | 3.0 | 8.0 | 0.00 | 0.00 | 0.00 | 56 | 1016.4 |
| 20260506030048 | 78 | 194 | 2.0 | 7.0 | 0.00 | 0.00 | 0.00 | 48 | 1016.6 |
| 20260506024545 | 79 | 201 | 5.0 | 9.0 | 0.00 | 0.00 | 0.00 | 49 | 1016.8 |
| 20260506023043 | 74 | 241 | 2.0 | 6.0 | 0.00 | 0.00 | 0.00 | 56 | 1017.0 |
| 20260506021541 | 73 | 205 | 2.0 | 7.0 | 0.00 | 0.00 | 0.00 | 54 | 1017.3 |
| 20260506020039 | 75 | 197 | 3.0 | 10.0 | 0.00 | 0.00 | 0.00 | 56 | 1017.5 |
| 20260506014537 | 73 | 216 | 2.0 | 6.0 | 0.00 | 0.00 | 0.00 | 53 | 1017.8 |
| 20260506013034 | 74 | 210 | 1.0 | 7.0 | 0.00 | 0.00 | 0.00 | 51 | 1018.2 |
| 20260506011536 | 77 | 299 | 4.0 | 9.0 | 0.00 | 0.00 | 0.00 | 47 | 1018.4 |
| 20260506010029 | 75 | 290 | 3.0 | 10.0 | 0.00 | 0.00 | 0.00 | 49 | 1018.6 |
| 20260506004527 | 70 | 292 | 3.0 | 9.0 | 0.00 | 0.00 | 0.00 | 55 | 1018.6 |
| 20260506003025 | 70 | 260 | 3.0 | 11.0 | 0.00 | 0.00 | 0.00 | 54 | 1018.9 |
| 20260506001524 | 71 | 296 | 4.0 | 10.0 | 0.00 | 0.00 | 0.00 | 54 | 1018.7 |
| 20260506000023 | 69 | 307 | 5.0 | 9.0 | 0.00 | 0.00 | 0.00 | 56 | 1018.8 |
| 20260505234521 | 66 | 307 | 4.0 | 9.0 | 0.00 | 0.00 | 0.00 | 60 | 1018.9 |
| 20260505233018 | 69 | 297 | 5.0 | 11.0 | 0.00 | 0.00 | 0.00 | 56 | 1018.8 |
| 20260505231526 | 67 | 289 | 5.0 | 11.0 | 0.00 | 0.00 | 0.00 | 56 | 1018.9 |
| 20260505230021 | 66 | 274 | 6.0 | 12.0 | 0.00 | 0.00 | 0.00 | 58 | 1018.8 |
| 20260505224508 | 64 | 294 | 6.0 | 13.0 | 0.00 | 0.00 | 0.00 | 60 | 1018.9 |
| 20260505223003 | 63 | 280 | 6.0 | 12.0 | 0.00 | 0.00 | 0.00 | 64 | 1018.8 |
| 20260505221601 | 60 | 311 | 6.0 | 12.0 | 0.00 | 0.00 | 0.00 | 68 | 1019.0 |
| 20260505220059 | 58 | 303 | 9.0 | 14.0 | 0.00 | 0.00 | 0.00 | 70 | 1018.9 |
| 20260505214600 | 57 | 283 | 8.0 | 13.0 | 0.00 | 0.00 | 0.00 | 72 | 1019.0 |
| 20260505213055 | 56 | 297 | 7.0 | 13.0 | 0.00 | 0.00 | 0.00 | 73 | 1019.0 |
| 20260505211607 | 56 | 316 | 5.0 | 15.0 | 0.00 | 0.00 | 0.00 | 74 | 1018.9 |
| 20260505210053 | 55 | 307 | 6.0 | 13.0 | 0.00 | 0.00 | 0.00 | 74 | 1018.9 |
| 20260505204552 | 55 | 303 | 8.0 | 13.0 | 0.00 | 0.00 | 0.00 | 73 | 1018.8 |
| 20260505203049 | 55 | 302 | 7.0 | 13.0 | 0.00 | 0.00 | 0.00 | 73 | 1018.7 |
| 20260505201548 | 55 | 295 | 7.0 | 13.0 | 0.00 | 0.00 | 0.00 | 73 | 1018.6 |
| 20260505200048 | 55 | 284 | 7.0 | 12.0 | 0.00 | 0.00 | 0.00 | 73 | 1018.6 |
| 20260505194551 | 56 | 304 | 5.0 | 11.0 | 0.00 | 0.00 | 0.00 | 72 | 1018.6 |
| 20260505193041 | 56 | 297 | 6.0 | 12.0 | 0.00 | 0.00 | 0.00 | 72 | 1018.6 |
| 20260505191541 | 56 | 288 | 7.0 | 12.0 | 0.00 | 0.00 | 0.00 | 72 | 1018.6 |
| 20260505190040 | 56 | 294 | 6.0 | 13.0 | 0.00 | 0.00 | 0.00 | 71 | 1018.5 |
| 20260505184536 | 56 | 284 | 8.0 | 14.0 | 0.00 | 0.00 | 0.00 | 71 | 1018.5 |
| 20260505183038 | 56 | 311 | 7.0 | 12.0 | 0.00 | 0.00 | 0.00 | 71 | 1018.5 |
| 20260505181532 | 56 | 291 | 8.0 | 12.0 | 0.00 | 0.00 | 0.00 | 70 | 1018.5 |
| 20260505180034 | 56 | 279 | 6.0 | 12.0 | 0.00 | 0.00 | 0.00 | 70 | 1018.3 |
| 20260505174537 | 57 | 299 | 7.0 | 15.0 | 0.00 | 0.00 | 0.00 | 70 | 1018.3 |
| 20260505173023 | 57 | 283 | 7.0 | 13.0 | 0.00 | 0.00 | 0.00 | 70 | 1018.4 |
| 20260505171524 | 57 | 290 | 8.0 | 13.0 | 0.00 | 0.00 | 0.00 | 70 | 1018.5 |
| 20260505170019 | 57 | 299 | 7.0 | 12.0 | 0.00 | 0.00 | 0.00 | 70 | 1018.5 |
| 20260505164516 | 57 | 299 | 6.0 | 11.0 | 0.00 | 0.00 | 0.00 | 69 | 1018.6 |
| 20260505163013 | 57 | 293 | 6.0 | 13.0 | 0.00 | 0.00 | 0.00 | 68 | 1018.6 |
| 20260505161511 | 58 | 292 | 6.0 | 12.0 | 0.00 | 0.00 | 0.00 | 68 | 1018.7 |
| 20260505153002 | 58 | 305 | 5.0 | 13.0 | 0.00 | 0.00 | 0.00 | 67 | 1019.1 |
| 20260505151559 | 59 | 299 | 7.0 | 13.0 | 0.00 | 0.00 | 0.00 | 67 | 1019.0 |
| 20260505130104 | 60 | 315 | 4.0 | 8.0 | 0.00 | 0.01 | 0.01 | 70 | 1019.3 |
| 20260505124544 | 60 | 297 | 4.0 | 9.0 | 0.00 | 0.01 | 0.01 | 71 | 1019.4 |